TimeEST,TemperatureF,Dew PointF,Humidity,Sea Level PressureIn,VisibilityMPH,Wind Direction,Wind SpeedMPH,Gust SpeedMPH,PrecipitationIn,Events,Conditions,WindDirDegrees,DateUTC
12:51 AM,-0.0,-18.0,43,30.05,10.0,West,6.9,-,N/A,,Clear,280,2013-01-24 05:51:00
1:51 AM,-0.9,-18.0,44,30.05,10.0,Variable,6.9,-,N/A,,Clear,0,2013-01-24 06:51:00
2:51 AM,-2.0,-18.0,47,30.05,10.0,WNW,4.6,-,N/A,,Clear,290,2013-01-24 07:51:00
3:51 AM,-2.0,-18.0,47,30.04,10.0,NW,9.2,16.1,N/A,,Clear,310,2013-01-24 08:51:00
4:51 AM,-2.0,-18.0,47,30.02,10.0,West,11.5,21.9,N/A,,Clear,280,2013-01-24 09:51:00
5:51 AM,-2.9,-18.0,49,30.03,10.0,WNW,5.8,-,N/A,,Clear,290,2013-01-24 10:51:00
6:51 AM,-2.9,-18.0,49,30.05,10.0,Variable,4.6,-,N/A,,Clear,0,2013-01-24 11:51:00
7:51 AM,-2.0,-18.0,47,30.06,10.0,Calm,Calm,-,N/A,,Clear,0,2013-01-24 12:51:00
8:51 AM,1.0,-18.0,41,30.06,10.0,Variable,4.6,-,N/A,,Clear,0,2013-01-24 13:51:00
9:51 AM,5.0,-16.1,37,30.06,10.0,WNW,8.1,19.6,N/A,,Scattered Clouds,290,2013-01-24 14:51:00
10:51 AM,8.1,-14.1,36,30.05,10.0,WNW,10.4,19.6,N/A,,Clear,290,2013-01-24 15:51:00
11:51 AM,10.0,-14.1,33,30.03,10.0,WNW,17.3,27.6,N/A,,Clear,300,2013-01-24 16:51:00
12:51 PM,12.0,-14.1,30,30.01,10.0,WNW,12.7,24.2,N/A,,Mostly Cloudy,290,2013-01-24 17:51:00
1:51 PM,12.0,-13.0,32,29.99,10.0,WNW,17.3,32.2,N/A,,Overcast,300,2013-01-24 18:51:00
2:51 PM,12.9,-14.1,29,29.99,10.0,WNW,18.4,31.1,N/A,,Clear,300,2013-01-24 19:51:00
3:51 PM,12.0,-14.1,30,30.01,10.0,WNW,11.5,18.4,N/A,,Clear,300,2013-01-24 20:51:00
4:51 PM,12.0,-15.0,29,30.02,10.0,WNW,15.0,34.5,N/A,,Clear,300,2013-01-24 21:51:00
5:51 PM,12.0,-15.0,29,30.04,10.0,WNW,12.7,26.5,N/A,,Clear,300,2013-01-24 22:51:00
6:51 PM,10.9,-14.1,32,30.06,10.0,West,10.4,23.0,N/A,,Clear,280,2013-01-24 23:51:00
7:51 PM,9.0,-14.1,35,30.08,10.0,West,12.7,19.6,N/A,,Clear,280,2013-01-25 00:51:00
8:51 PM,7.0,-11.9,42,30.10,10.0,NW,12.7,28.8,N/A,,Clear,310,2013-01-25 01:51:00
9:51 PM,7.0,-11.0,44,30.10,10.0,WNW,17.3,29.9,N/A,,Clear,300,2013-01-25 02:51:00
10:51 PM,6.1,-9.9,48,30.12,10.0,NW,17.3,32.2,N/A,,Clear,310,2013-01-25 03:51:00
11:51 PM,5.0,-9.9,50,30.14,10.0,WNW,9.2,-,N/A,,Clear,300,2013-01-25 04:51:00